TimeEEST,TemperatureF,Dew PointF,Humidity,Sea Level PressureIn,VisibilityMPH,Wind Direction,Wind SpeedMPH,Gust SpeedMPH,PrecipitationIn,Events,Conditions,WindDirDegrees,DateUTC
12:20 AM,51.8,41.0,67,30.12,-9999.0,North,3.5,-,N/A,,Clear,360,2012-10-13 21:20:00
12:50 AM,46.4,41.0,81,30.15,-9999.0,Variable,2.3,-,N/A,,Clear,0,2012-10-13 21:50:00
1:20 AM,46.4,41.0,81,30.15,-9999.0,Variable,1.2,-,N/A,,Clear,0,2012-10-13 22:20:00
1:50 AM,46.4,41.0,81,30.12,-9999.0,Variable,2.3,-,N/A,,Clear,0,2012-10-13 22:50:00
2:20 AM,44.6,41.0,87,30.15,-9999.0,Variable,2.3,-,N/A,,Clear,0,2012-10-13 23:20:00
2:50 AM,44.6,41.0,87,30.12,-9999.0,Variable,2.3,-,N/A,,Clear,0,2012-10-13 23:50:00
3:00 AM,45,40,78,30.08,6,North,2.3,,,,,10,2012-10-14 00:00:00
3:20 AM,44.6,41.0,87,30.12,-9999.0,Variable,1.2,-,N/A,,Clear,0,2012-10-14 00:20:00
3:50 AM,44.6,39.2,81,30.12,-9999.0,Variable,1.2,-,N/A,,Clear,0,2012-10-14 00:50:00
4:20 AM,42.8,41.0,93,30.12,-9999.0,Variable,2.3,-,N/A,,Clear,0,2012-10-14 01:20:00
4:50 AM,41.0,39.2,93,30.12,-9999.0,Variable,2.3,-,N/A,,Clear,0,2012-10-14 01:50:00
5:20 AM,39.2,37.4,93,30.15,-9999.0,Variable,1.2,-,N/A,,Clear,0,2012-10-14 02:20:00
5:50 AM,42.8,39.2,87,30.15,-9999.0,East,3.5,-,N/A,,Clear,80,2012-10-14 02:50:00
6:20 AM,41.0,37.4,87,30.15,-9999.0,Variable,2.3,-,N/A,,Clear,0,2012-10-14 03:20:00
6:50 AM,39.2,37.4,93,30.15,-9999.0,Variable,2.3,-,N/A,,Clear,0,2012-10-14 03:50:00
7:20 AM,39.2,37.4,93,30.15,-9999.0,Variable,2.3,-,N/A,,Clear,0,2012-10-14 04:20:00
7:50 AM,41.0,37.4,87,30.15,-9999.0,Variable,2.3,-,N/A,,Clear,0,2012-10-14 04:50:00
8:20 AM,44.6,39.2,81,30.15,-9999.0,Variable,2.3,-,N/A,,Clear,0,2012-10-14 05:20:00
8:50 AM,44.6,41.0,87,30.15,-9999.0,Variable,2.3,-,N/A,,Clear,0,2012-10-14 05:50:00
9:00 AM,45,40,78,30.16,12,WNW,2.3,,,,,300,2012-10-14 06:00:00
9:20 AM,50.0,42.8,76,30.15,-9999.0,Variable,2.3,-,N/A,,Clear,0,2012-10-14 06:20:00
9:50 AM,51.8,42.8,71,30.15,-9999.0,Variable,2.3,-,N/A,,Clear,0,2012-10-14 06:50:00
10:20 AM,55.4,42.8,63,30.15,-9999.0,NW,3.5,-,N/A,,Clear,310,2012-10-14 07:20:00
10:50 AM,60.8,42.8,52,30.15,-9999.0,Variable,2.3,-,N/A,,Clear,0,2012-10-14 07:50:00
11:20 AM,64.4,41.0,42,30.15,-9999.0,East,3.5,-,N/A,,Clear,80,2012-10-14 08:20:00
11:50 AM,66.2,42.8,43,30.12,-9999.0,Variable,2.3,-,N/A,,Clear,0,2012-10-14 08:50:00
12:20 PM,69.8,41.0,35,30.12,-9999.0,SE,3.5,-,N/A,,Clear,140,2012-10-14 09:20:00
12:50 PM,69.8,33.8,27,30.12,-9999.0,Variable,5.8,-,N/A,,Clear,0,2012-10-14 09:50:00
1:20 PM,71.6,35.6,27,30.09,6.2,WNW,5.8,-,N/A,,Partly Cloudy,290,2012-10-14 10:20:00
1:50 PM,71.6,37.4,29,30.09,6.2,SW,6.9,-,N/A,,Partly Cloudy,220,2012-10-14 10:50:00
2:20 PM,73.4,37.4,27,30.09,6.2,SSW,6.9,-,N/A,,Partly Cloudy,210,2012-10-14 11:20:00
2:50 PM,73.4,37.4,27,30.06,6.2,SW,6.9,-,N/A,,Partly Cloudy,230,2012-10-14 11:50:00
3:00 PM,72,37,17,30.02,12,SW,6.9,,,,Scattered Clouds,230,2012-10-14 12:00:00
3:20 PM,73.4,37.4,27,30.06,6.2,SW,5.8,-,N/A,,Partly Cloudy,230,2012-10-14 12:20:00
3:50 PM,73.4,35.6,25,30.06,6.2,SW,8.1,-,N/A,,Partly Cloudy,230,2012-10-14 12:50:00
4:20 PM,73.4,35.6,25,30.06,6.2,SW,8.1,-,N/A,,Partly Cloudy,230,2012-10-14 13:20:00
4:50 PM,73.4,37.4,27,30.06,6.2,SW,4.6,-,N/A,,Partly Cloudy,220,2012-10-14 13:50:00
5:20 PM,73.4,37.4,27,30.06,6.2,SSW,4.6,-,N/A,,Partly Cloudy,200,2012-10-14 14:20:00
5:50 PM,69.8,39.2,33,30.06,6.2,SSW,4.6,-,N/A,,Partly Cloudy,210,2012-10-14 14:50:00
6:20 PM,68.0,39.2,35,30.09,6.2,West,3.5,-,N/A,,Partly Cloudy,270,2012-10-14 15:20:00
6:50 PM,68.0,39.2,35,30.09,-9999.0,SSE,6.9,-,N/A,,Clear,160,2012-10-14 15:50:00
7:20 PM,66.2,41.0,40,30.09,-9999.0,Variable,3.5,-,N/A,,Clear,0,2012-10-14 16:20:00
7:50 PM,62.6,41.0,45,30.09,-9999.0,Variable,3.5,-,N/A,,Clear,0,2012-10-14 16:50:00
8:20 PM,62.6,42.8,48,30.12,-9999.0,East,4.6,-,N/A,,Clear,100,2012-10-14 17:20:00
8:50 PM,59.0,42.8,55,30.12,-9999.0,Variable,2.3,-,N/A,,Clear,0,2012-10-14 17:50:00
9:00 PM,59,42,42,30.10,12,East,2.3,,,,,80,2012-10-14 18:00:00
9:20 PM,59.0,42.8,55,30.12,-9999.0,NE,4.6,-,N/A,,Clear,40,2012-10-14 18:20:00
9:50 PM,55.4,41.0,58,30.12,-9999.0,NNE,3.5,-,N/A,,Clear,20,2012-10-14 18:50:00
10:20 PM,57.2,41.0,55,30.12,-9999.0,Variable,2.3,-,N/A,,Clear,0,2012-10-14 19:20:00
10:50 PM,51.8,39.2,62,30.12,-9999.0,North,3.5,-,N/A,,Clear,10,2012-10-14 19:50:00
11:20 PM,51.8,39.2,62,30.15,-9999.0,North,4.6,-,N/A,,Clear,360,2012-10-14 20:20:00
11:50 PM,53.6,41.0,62,30.15,-9999.0,ENE,4.6,-,N/A,,Clear,60,2012-10-14 20:50:00